Cut Bank, MT

4:37 PM MDT on September 21, 2017 (GMT -0600)
Cut Bank Municipal

Weather History for KCTB - April, 2012

Change the Weather History Date:

Sunday, April 8, 2012

  Actual Average Record
Temperature  
Mean Temperature 34 °F 39 °F  
Max Temperature 50 °F 51 °F 79 °F (1977)
Min Temperature 17 °F 27 °F 5 °F (1982)
Degree Days  
Heating Degree Days 31 26  
Month to date heating degree days 211 217  
Since 1 July heating degree days 6582 7315  
Cooling Degree Days 0 0  
Month to date cooling degree days 0 0  
Year to date cooling degree days 0 0  
Moisture  
Dew Point 13 °F    
Average Humidity 47    
Maximum Humidity 73    
Minimum Humidity 20    
Precipitation  
Precipitation 0.00 in 0.02 in 0.27 in (1922)
Month to date precipitation T 0.15  
Year to date precipitation 0.85 1.06  
Snow  
Snow 0.00 in - - ()
Snow Depth 0.00 in    
Sea Level Pressure  
Sea Level Pressure 30.38 in    
Wind  
Wind Speed 7 mph (NNW)    
Max Wind Speed 14 mph    
Max Gust Speed 18 mph    
Visibility 10 miles    
Events      
T = Trace of Precipitation, MM = Missing Value Source: NWS Daily Summary

Daily Weather History Graph

Daily Weather History Graph

Search for Another Location

Airport or City:

Trip Planner

Search our weather history database for the weather conditions in past years. The results will help you decide how hot, cold, wet, or windy it might be!

Date:

Astronomy

Apr. 08, 2012 Rise Set
Actual Time 6:51 AM MDT 8:11 PM MDT
Civil Twilight 6:19 AM MDT 8:43 PM MDT
Nautical Twilight 5:40 AM MDT 9:23 PM MDT
Astronomical Twilight 4:58 AM MDT 10:05 PM MDT
Moon 11:20 PM MDT (4/8) 7:36 AM MDT (4/8)
Length of Visible Light 14h 24m
Length of Day
13h 19m
Waning Gibbous, 94% of the Moon is Illuminated
Apr 8
Waning Gibbous
Apr 13
Last Quarter
Apr 21
New
Apr 29
First Quarter
May 5
Full

Hourly Weather History & Observations

Time (MDT) Temp. Windchill Dew Point Humidity Pressure Visibility Wind Dir Wind Speed Gust Speed Precip Events Conditions
12:56 AM 28.0 °F 19.3 °F 12.9 °F 53% 30.33 in 10.0 mi West 9.2 mph - N/A   Clear
1:56 AM 28.0 °F 18.6 °F 14.0 °F 56% 30.33 in 10.0 mi West 10.4 mph - N/A   Clear
2:56 AM 25.0 °F 13.1 °F 14.0 °F 63% 30.35 in 10.0 mi WNW 13.8 mph - N/A   Clear
3:56 AM 25.0 °F 13.6 °F 14.0 °F 63% 30.35 in 10.0 mi WNW 12.7 mph - N/A   Clear
4:56 AM 19.9 °F 12.1 °F 12.0 °F 71% 30.38 in 10.0 mi West 5.8 mph - N/A   Clear
5:56 AM 21.0 °F 14.6 °F 12.0 °F 68% 30.39 in 10.0 mi NNW 4.6 mph - N/A   Clear
6:56 AM 19.0 °F 12.3 °F 10.9 °F 71% 30.42 in 10.0 mi WSW 4.6 mph - N/A   Clear
7:56 AM 24.1 °F 19.7 °F 14.0 °F 65% 30.43 in 10.0 mi WNW 3.5 mph - N/A   Clear
8:56 AM 35.1 °F 30.1 °F 17.1 °F 48% 30.41 in 10.0 mi West 5.8 mph - N/A   Clear
9:56 AM 39.9 °F 32.9 °F 15.1 °F 36% 30.43 in 10.0 mi NW 11.5 mph - N/A   Clear
10:56 AM 42.1 °F 38.4 °F 12.9 °F 31% 30.43 in 10.0 mi Variable 5.8 mph - N/A   Clear
11:56 AM 44.1 °F 42.5 °F 12.0 °F 27% 30.42 in 10.0 mi Variable 3.5 mph - N/A   Clear
12:56 PM 46.0 °F 42.5 °F 10.9 °F 24% 30.41 in 10.0 mi West 6.9 mph - N/A   Clear
1:56 PM 46.9 °F - 10.9 °F 23% 30.39 in 10.0 mi Variable 3.5 mph - N/A   Clear
2:56 PM 46.9 °F - 10.0 °F 22% 30.39 in 10.0 mi Variable 3.5 mph 16.1 mph N/A   Clear
3:56 PM 48.9 °F - 10.9 °F 22% 30.36 in 10.0 mi Variable 4.6 mph - N/A   Clear
4:56 PM 48.9 °F - 10.0 °F 21% 30.37 in 10.0 mi NNE 4.6 mph - N/A   Clear
5:56 PM 50.0 °F - 10.9 °F 21% 30.35 in 10.0 mi NNE 4.6 mph - N/A   Clear
6:56 PM 48.0 °F - 12.9 °F 24% 30.36 in 10.0 mi NE 8.1 mph - N/A   Clear
7:56 PM 41.0 °F 35.8 °F 12.9 °F 32% 30.37 in 10.0 mi NE 8.1 mph - N/A   Clear
8:56 PM 37.9 °F 30.9 °F 16.0 °F 41% 30.37 in 10.0 mi ENE 10.4 mph - N/A   Clear
9:56 PM 34.0 °F 26.6 °F 17.1 °F 50% 30.38 in 10.0 mi NE 9.2 mph - N/A   Clear
10:56 PM 32.0 °F 23.6 °F 17.1 °F 54% 30.39 in 10.0 mi NE 10.4 mph - N/A   Clear
11:56 PM 32.0 °F 23.6 °F 15.1 °F 50% 30.39 in 10.0 mi NNE 10.4 mph - N/A   Mostly Cloudy